Regional Weather Roundup
Issued by NWS

Home | Current Version | Previous Version | Graphics & Text | Print | Product List | Glossary On
Versions: 1 2 3 4 5 6 7 8 9 10 11 12 13 14 15 16 17 18 19 20 21 22 23 24 25 26 27 28 29 30 31 32 33 34 35 36 37 38 39 40 41 42 43 44 45 46 47 48 49 50
000
ASUS43 KFSD 210610
RWRSD

WEATHER ROUNDUP FOR SOUTH DAKOTA
NATIONAL WEATHER SERVICE SIOUX FALLS SD
100 AM CDT MON APR 21 2014

NOTE: "FAIR" INDICATES FEW OR NO CLOUDS BELOW 12,000 FEET WITH NO
SIGNIFICANT WEATHER AND/OR OBSTRUCTIONS TO VISIBILITY.


SDZ001>005-009-010-012>017-210700-
NORTHWEST AND NORTH CENTRAL SOUTH DAKOTA

CITY           SKY/WX    TMP DP  RH WIND       PRES   REMARKS
BUFFALO          N/A     45  21  38 NW13      30.07R
FAITH            N/A     43  25  49 NW7       30.10R
MOBRIDGE       CLEAR     43  26  51 N7        30.02R
$$

SDZ012>016-024>037-041>051-057-063-072>074-210700-
SOUTHWEST AND SOUTH CENTRAL SOUTH DAKOTA

CITY           SKY/WX    TMP DP  RH WIND       PRES   REMARKS
RAPID CTY ARPT CLEAR     47  24  40 NW16      30.13R
PIERRE         CLEAR     52  29  41 N16       30.02R
CUSTER         CLEAR     46  18  32 N10G17    30.17R
ELLSWORTH AFB  CLEAR     52  22  31 NW13      30.14R
PHILIP         CLEAR     47  27  45 N6        30.08R
PINE RIDGE     CLEAR     51  28  41 NE3       30.12R
SPEARFISH      FAIR      41  23  48 SW8       30.19R
WINNER         FAIR      58  33  39 N16       30.01R
$$

SDZ004>011-016>023-039-040-210700-
NORTHEAST SOUTH DAKOTA

CITY           SKY/WX    TMP DP  RH WIND       PRES   REMARKS
ABERDEEN       MOCLDY    54  33  45 N9        30.00R
WATERTOWN      FAIR      55  40  56 SE5       29.92R
SISSETON         N/A     59  39  47 NW13      29.95R
$$

SDZ017-020-022-023-036>040-048>070-210700-
SOUTHEAST SOUTH DAKOTA

CITY           SKY/WX    TMP DP  RH WIND       PRES   REMARKS
SIOUX FALLS    FAIR      64  51  62 SW9       29.88R
HURON          MOCLDY    54  44  69 N9        29.92R
CHAMBERLAIN      N/A     59  35  40 N15G25    29.99R
MITCHELL       CLOUDY    63  46  54 NW6       29.90S
YANKTON        FAIR      64  54  68 SW10      29.90R
$$

ABBREVIATIONS USED IN REMARKS
   TC - TEMPERATURE IN CELSIUS
  WCI - WIND CHILL INDEX
   HX - HEAT INDEX
  VSB - VISIBILITY




USA.gov is the U.S. government's official web portal to all federal, state and local government web resources and services.